Regional Weather Roundup
Issued by NWS Sterling, VA

Home | Current Version | Previous Version | Graphics & Text | Print | Product List | Glossary On
Versions: 1 2 3 4 5 6 7 8 9 10 11 12 13 14 15 16 17 18 19 20 21 22 23 24 25 26 27 28 29 30 31 32 33 34 35 36 37 38 39 40 41 42 43 44 45 46 47 48 49 50
000
ASUS41 KLWX 241610
RWRLWX

REGIONAL WEATHER ROUNDUP
NATIONAL WEATHER SERVICE BALTIMORE MD/WASHINGTON DC
1200 PM EDT SUN MAY 24 2015

Note: "FAIR" indicates few or no clouds below 12,000 feet
with no significant weather and/or obstructions to visibility.
 TC=TEMPERATURE CELSIUS

 * =Non NWS site. Station does not report precipitation (e.g. rain,
    snow, etc.), thunder, or fog.

DCZ001-MDZ009-015-VAZ040>042-051-053>054-241700-
WASHINGTON METRO

CITY           SKY/WX    TMP DP  RH WIND       PRES   REMARKS
WASHINGTON NAT MOSUNNY   74  57  55 S8        30.36F
DULLES         PTSUNNY   74  56  53 VRB6      30.35F
ANDREWS AFB    SUNNY     74  55  51 VRB5      30.35F
FT BELVOIR     SUNNY     74  56  53 VRB3      30.35F
QUANTICO       PTSUNNY   72  57  59 S9        30.37F
COLLEGE PARK*  SUNNY     72  54  53 CALM      30.35F
LEESBURG*      SUNNY     73  57  56 S5        30.36F
GAITHERSBURG*  SUNNY     73  54  49 S3        30.38F

$$

MDZ006>007-011-014-241700-
BALTIMORE METRO

CITY           SKY/WX    TMP DP  RH WIND       PRES   REMARKS
BWI AIRPORT    MOSUNNY   73  53  49 VRB3      30.35F
MD SCIENCE CTR   N/A     72  53  51 MISG      30.36F
MARTIN STATE   SUNNY     70  59  68 SE10      30.38F
ANNAPOLIS      SUNNY     67  56  67 SE15      30.36F
FORT MEADE*    SUNNY     72  54  53 SW3       30.37F

$$

MDZ012-015-019>023-241700-
MARYLAND EASTERN SHORE

CITY           SKY/WX    TMP DP  RH WIND       PRES   REMARKS
OCEAN CITY     MOSUNNY   69  47  45 S10G17    30.41F
SALISBURY      SUNNY     74  51  44 SW8G17    30.39F
BAY BRIDGE AP*   N/A    N/A N/A N/A S10       30.37F
CAMBRIDGE*     SUNNY     72  54  53 SW9       30.38F

$$

MDZ017>025-241700-
SOUTHERN MARYLAND

CITY           SKY/WX    TMP DP  RH WIND       PRES   REMARKS
PATUXENT RIVER MOSUNNY   74  56  53 VRB6      30.37F
ST INIGOES     SUNNY     74  57  55 S10       30.37F
LEONARDTOWN*   SUNNY     72  54  53 S7        30.39F

$$

MDZ003>005-241700-
NORTH CENTRAL MARYLAND

CITY           SKY/WX    TMP DP  RH WIND       PRES   REMARKS
FREDERICK*     SUNNY     73  55  53 VRB5      30.37F
HAGERSTOWN APT MOSUNNY   74  45  35 SW6       30.35F
WESTMINSTER*   SUNNY     73  46  38 W3        30.36S

$$

MDZ501>502-241700-
WESTERN MARYLAND

CITY           SKY/WX    TMP DP  RH WIND       PRES   REMARKS
OAKLAND*       SUNNY     70  36  28 SW6       30.41R
CUMBERLAND*    SUNNY     72  46  40 SE5       30.39F

$$

VAZ025>031-241700-
SHENANDOAH VALLEY

CITY           SKY/WX    TMP DP  RH WIND       PRES   REMARKS
WINCHESTER*    SUNNY     79  41  25 S6        30.35F
FRONT ROYAL*   FAIR      75  52  43 CALM      30.34F
LURAY*         FAIR      77  54  44 CALM      30.36S
NEW MARKET*    FAIR      74  51  44 CALM      30.35S
STAUNTON*      SUNNY     78  49  36 SW10      30.38F
WAYNESBORO*    FAIR      75  51  42 SW9       30.38S

$$

WVZ021-048>050-054>055-241700-
EASTERN WEST VIRGINIA PANHANDLE

CITY           SKY/WX    TMP DP  RH WIND       PRES   REMARKS
MARTINSBURG    SUNNY     73  52  47 S3        30.35F
PETERSBURG*    SUNNY     74  46  36 CALM      30.36F

$$

VAZ036>039-050-241700-
CENTRAL FOOTHILLS

CITY           SKY/WX    TMP DP  RH WIND       PRES   REMARKS
CHARLOTTESVILL SUNNY     75  53  46 VRB6      30.36F
CULPEPER*      SUNNY     74  56  52 SW6       30.36F
ORANGE*        SUNNY     77  57  50 CALM      30.37F
GORDONSVILLE*  FAIR      74  56  53 SW5       30.36S
WARRENTON*     FAIR      76  58  54 S3        30.35F

$$

VAZ055>057-241700-
NORTH AND CENTRAL PIEDMONT

CITY           SKY/WX    TMP DP  RH WIND       PRES   REMARKS
FREDERICKSBRG* SUNNY     78  57  49 S8        30.35F
STAFFORD*      SUNNY     76  54  47 S8        30.40F

$$

NCZ024-NYZ072-PAZ021-071-VAZ022-071-241700-
OTHER REGIONAL OBSERVATIONS

CITY           SKY/WX    TMP DP  RH WIND       PRES   REMARKS
NEW YORK CITY  SUNNY     76  39  26 VRB3      30.35F
PHILADELPHIA   PTSUNNY   74  52  46 W8G17     30.36F
PITTSBURGH     PTSUNNY   75  43  31 S7        30.33S
ROANOKE        SUNNY     75  53  46 VRB5      30.40F
RICHMOND       MOSUNNY   77  57  50 SW9       30.38F
RALEIGH        MOSUNNY   77  60  55 SW9       30.41F

$$

ANZ530>537-241700-
MARINE OBSERVATIONS

STATION/POSITION TIME  TEMP    WIND        PRES
                       AIR SEA DIR/SP/G
                 (UTC) (F)     (DEG/KT/KT) (MB)
THOMAS PT LIGHT  1600   66 65  150/ 12/ 13 1028.6F
BALT KEY BRIDGE  1500   66     100/  4/  4 1028.4F
LEWISETTA        1500   70 69              1028.6F
SOLOMONS ISLAND  1500      68                N/A
PINEY POINT      1500          210/  5/  5   N/A

$$



USA.gov is the U.S. government's official web portal to all federal, state and local government web resources and services.